Vertical_Velocity
1 3 -0 -3 -0 -2 -1 -1 1 1 0 0 -1 1 0 1 -2 -3 -2 3 -1 -1 -4 -1 0 1 -1 4 6 6 6 3 1 -0 2 4 -2 0 5 4 -1 0 2
1 1 -2 2 -1 -6 -3 -3 2 -0 -0 1 0 -0 -1 0 1 -0 0 0 -2 -1 3 -1 1 2 1 2 2 -1 3 11 -8 3 0 -2 1 4 3 -2 3 1 -2
2 -1 3 -1 -5 -6 -5 -1 -3 1 3 2 1 -0 -0 2 1 -2 -2 0 9 -1 0 -3 -2 1 3 2 -2 -1 -4 3 5 -3 1 3 2 1 -2 2 5 1 3
1 -2 -3 -4 -7 -5 -0 -1 -1 2 2 0 2 2 1 -2 -2 0 -1 1 5 -0 1 -1 0 -0 1 6 6 3 6 9 -10 3 -14 -2 2 1 -3 -1 -5 0 -4
0 -1 -9 -3 1 2 -0 -1 3 1 2 2 4 2 -0 -1 -1 2 4 4 2 2 -4 -1 0 0 -1 4 -2 3 -0 -10 -3 3 -12 -7 -7 -8 4 4 -3 -3 -7
-3 -3 0 2 0 -3 0 -1 0 -2 2 2 -0 1 0 -5 -3 2 4 3 8 6 1 3 -2 -1 -1 -0 -3 -2 2 -2 6 3 -17 -7 1 1 3 0 1 2 -9
-4 7 0 4 -2 -4 3 -1 -3 -2 1 0 2 1 -3 -3 -1 3 7 2 7 6 2 4 1 -3 2 0 5 -4 6 -5 -5 -3 -4 -3 -14 7 7 1 5 4 -1
0 -3 1 1 -1 3 1 -0 2 1 1 -2 -1 -1 -1 -3 1 3 6 4 2 -4 1 -2 3 3 2 0 3 2 1 -3 2 -6 -5 -4 3 3 2 1 -1 -2 -3
-4 -7 -5 -0 5 0 -4 2 3 -0 -1 -5 -3 -1 -2 -4 -0 3 6 0 4 2 1 1 3 2 -0 1 -1 1 2 -2 10 3 3 3 2 4 6 6 1 1 -2
-3 -17 0 1 2 -4 5 -2 3 -4 -2 2 1 -3 2 -3 3 5 5 3 5 -3 -2 -2 -4 -0 5 -5 -3 5 -4 -4 3 9 -0 -2 3 2 2 3 4 -0 4
1 24 7 0 -5 4 5 -1 -0 3 1 1 0 3 4 1 5 4 3 8 -0 2 2 2 2 1 1 1 3 3 -1 4 -0 -3 -0 2 -0 -0 5 1 2 -1 -2
17 1 3 3 4 1 0 2 3 2 5 -3 4 1 -6 2 12 7 -0 -0 1 -1 -6 -0 2 5 -3 -1 -2 3 0 4 5 4 3 1 -2 -2 -1 -1 1 -0 -0
4 1 -3 7 2 -1 -0 4 -4 2 5 2 2 18 -12 -4 -5 -4 -1 2 -1 -8 -3 -2 1 -0 0 1 4 11 1 -0 -2 -0 -4 -2 0 -4 -1 -2 0 0 2
3 3 -3 8 -5 2 6 5 5 -1 1 6 0 -14 0 6 1 -6 -7 4 -4 -2 -4 -2 -3 1 2 -1 -1 0 2 3 1 -0 -3 -0 0 -0 -1 -1 -1 -2 -1
6 5 8 14 17 5 3 3 8 16 13 7 13 1 2 -3 2 -2 -3 -0 -2 0 1 3 1 -1 -2 -0 -0 -1 -1 -3 -6 2 2 -3 -4 -2 0 2 -1 -2 -1
15 -6 -10 -0 5 3 20 11 12 11 9 -7 -3 -3 -1 -3 6 -8 -1 8 5 -3 -4 -2 -0 -2 -2 0 -2 -1 1 3 2 2 -0 1 1 -1 2 0 -1 -0 -0
-6 4 2 20 -2 11 -3 -33 1 11 6 5 3 2 -14 -1 2 -4 -13 4 3 -4 -3 -1 -2 0 -2 -1 0 -0 -2 -3 0 -3 0 1 0 1 0 2 2 0 -3
20 3 25 8 -2 -12 -10 7 -26 -8 -6 -1 3 -3 -11 -12 -9 -11 -1 -3 -6 -5 -1 1 -0 -5 -3 -2 -1 1 0 -3 -4 -2 -0 1 -1 -2 2 1 -2 -0 -2
-35 8 2 4 6 -3 12 10 -4 1 18 0 5 6 3 16 19 -12 4 -5 -5 0 4 -1 -6 -3 0 3 -2 -0 -2 -2 -1 1 -2 -1 -1 1 1 -1 -0 -0 1
-5 -1 -1 3 0 6 6 -16 -17 -13 7 7 4 -1 -7 6 -6 -8 3 -5 -1 2 -1 -7 -4 3 1 0 0 0 2 3 2 2 2 2 -1 -2 -1 -2 0 -2 -1
3 3 -0 -9 -2 6 15 -16 6 5 -10 -10 2 -3 7 -11 4 -5 -2 0 -0 -3 -1 -2 2 -1 0 -1 2 -3 3 -1 -2 -1 -3 -3 -1 2 1 -1 -1 3 2
2 4 4 4 3 -5 -13 -8 -8 -2 -5 0 5 -0 -1 4 -1 -1 -2 1 3 1 -0 -3 -2 -1 3 -1 -3 -4 -0 -4 -4 -0 -5 -2 1 0 -0 -1 -0 -0 -2
5 -5 3 -2 -1 0 -2 2 -7 -4 4 0 1 2 -1 -2 -0 -4 2 -1 -4 -1 -1 1 1 -1 -0 -3 -2 -4 -0 1 -0 -1 -4 1 1 -0 1 0 -1 -3 -0
8 7 -3 -1 1 10 13 7 1 2 11 3 -4 -5 -4 -2 -10 -1 -0 0 -5 1 -0 4 7 4 -5 1 -6 -4 3 -3 -3 -0 -2 -1 -1 -1 -0 -0 -0 -2 1
-2 -2 9 9 14 -8 -6 -3 -2 -13 3 3 -1 0 -13 7 0 -4 -4 3 3 -1 3 3 -1 -5 1 2 -4 -4 -3 -4 -3 0 -1 -1 -0 -0 -1 -1 -1 -1 2
-4 -8 3 -3 -2 1 -4 -20 -20 4 4 2 5 -1 6 1 -1 1 2 -0 0 1 7 3 2 -1 1 -3 -5 -1 -3 -3 -2 1 0 1 1 -0 -1 -1 1 -1 -2
Height
1487 1493 1499 1505 1509 1514 1518 1521 1524 1528 1531 1534 1537 1540 1543 1545 1547 1549 1551 1552 1554 1556 1556 1557 1558 1560 1562 1564 1565 1566 1565 1564 1565 1565 1564 1564 1564 1564 1564 1563 1562 1561 1560
1479 1486 1492 1498 1503 1507 1510 1514 1518 1522 1525 1528 1531 1535 1538 1540 1543 1544 1546 1547 1547 1549 1552 1553 1554 1556 1557 1559 1562 1562 1564 1561 1560 1563 1563 1563 1562 1561 1560 1558 1557 1555 1554
1473 1479 1485 1490 1494 1498 1502 1507 1511 1515 1519 1523 1525 1528 1531 1535 1538 1540 1541 1542 1542 1545 1549 1551 1552 1553 1553 1555 1557 1558 1559 1560 1559 1559 1560 1560 1559 1557 1556 1555 1553 1551 1550
1463 1470 1476 1480 1485 1490 1495 1499 1503 1507 1512 1516 1519 1522 1526 1530 1533 1534 1535 1537 1538 1541 1543 1545 1547 1549 1550 1551 1553 1555 1556 1557 1557 1556 1554 1555 1554 1553 1552 1550 1548 1546 1543
1453 1458 1464 1471 1476 1482 1487 1490 1495 1500 1504 1508 1513 1516 1520 1523 1525 1526 1529 1531 1532 1534 1537 1540 1542 1544 1546 1548 1548 1550 1549 1551 1552 1552 1550 1551 1548 1545 1545 1543 1541 1539 1538
1446 1448 1455 1461 1467 1471 1477 1482 1487 1491 1496 1500 1504 1508 1511 1515 1519 1521 1524 1524 1525 1529 1531 1534 1538 1540 1540 1542 1542 1542 1545 1546 1546 1545 1546 1545 1544 1540 1539 1538 1536 1533 1531
1437 1442 1447 1451 1456 1461 1468 1473 1477 1482 1487 1491 1495 1500 1504 1508 1511 1514 1518 1518 1519 1522 1526 1529 1532 1534 1535 1536 1538 1539 1539 1539 1541 1540 1539 1538 1536 1537 1534 1532 1530 1528 1526
1427 1433 1440 1444 1447 1453 1459 1463 1468 1473 1478 1482 1488 1493 1497 1500 1505 1508 1511 1511 1514 1517 1519 1522 1526 1528 1529 1531 1533 1533 1534 1534 1535 1534 1533 1532 1531 1531 1528 1526 1524 1521 1519
1419 1424 1429 1435 1438 1444 1449 1453 1459 1466 1471 1475 1481 1485 1489 1493 1498 1501 1503 1504 1506 1509 1512 1516 1519 1522 1525 1527 1529 1530 1530 1530 1531 1530 1528 1526 1525 1525 1523 1520 1518 1516 1513
1406 1411 1415 1424 1431 1434 1440 1446 1452 1458 1462 1468 1473 1477 1482 1487 1491 1493 1495 1498 1500 1503 1505 1508 1512 1515 1519 1520 1522 1524 1524 1524 1525 1525 1522 1521 1520 1518 1517 1515 1512 1510 1508
1398 1402 1407 1413 1420 1428 1434 1440 1445 1450 1455 1461 1466 1471 1479 1481 1484 1486 1490 1491 1495 1497 1499 1502 1505 1509 1512 1514 1516 1517 1519 1520 1519 1519 1519 1518 1515 1513 1510 1510 1509 1507 1505
1391 1395 1400 1403 1410 1419 1425 1432 1437 1443 1448 1452 1458 1465 1469 1477 1479 1482 1486 1488 1491 1493 1496 1499 1502 1504 1506 1508 1511 1512 1512 1514 1514 1513 1513 1512 1511 1509 1507 1506 1505 1504 1501
1382 1387 1391 1396 1404 1409 1415 1421 1428 1435 1439 1445 1454 1454 1460 1469 1473 1478 1480 1483 1484 1488 1492 1495 1497 1499 1501 1504 1506 1508 1508 1509 1509 1509 1509 1510 1507 1505 1503 1502 1501 1499 1496
1369 1376 1382 1387 1391 1399 1404 1410 1417 1423 1429 1437 1441 1453 1458 1462 1462 1469 1475 1478 1479 1483 1485 1488 1491 1496 1497 1498 1500 1501 1502 1503 1504 1503 1504 1504 1502 1501 1499 1498 1496 1494 1490
1357 1369 1378 1381 1386 1389 1394 1402 1411 1418 1424 1426 1432 1443 1451 1455 1460 1465 1472 1474 1475 1479 1482 1485 1488 1490 1493 1494 1495 1497 1499 1500 1500 1501 1499 1498 1498 1497 1495 1494 1492 1489 1487
1352 1355 1369 1375 1379 1385 1392 1399 1409 1417 1413 1426 1431 1439 1443 1452 1457 1464 1473 1474 1471 1474 1478 1482 1485 1487 1488 1491 1492 1492 1493 1494 1495 1496 1496 1494 1493 1492 1492 1490 1488 1486 1483
1349 1355 1361 1373 1375 1385 1397 1402 1394 1419 1421 1430 1426 1431 1441 1451 1456 1454 1468 1474 1471 1474 1477 1478 1482 1484 1486 1488 1487 1487 1488 1489 1489 1490 1492 1491 1490 1489 1488 1486 1484 1482 1480
1351 1361 1369 1357 1364 1390 1403 1391 1409 1425 1424 1421 1425 1431 1435 1445 1455 1456 1463 1467 1471 1473 1475 1476 1478 1481 1483 1484 1484 1484 1484 1485 1486 1486 1487 1487 1486 1485 1484 1482 1480 1479 1477
1366 1371 1371 1377 1380 1388 1394 1390 1395 1422 1420 1420 1426 1430 1438 1442 1440 1452 1457 1461 1470 1471 1471 1472 1474 1477 1479 1481 1481 1481 1480 1481 1482 1482 1483 1482 1482 1482 1480 1479 1478 1476 1474
1367 1379 1379 1382 1385 1389 1384 1390 1411 1424 1431 1428 1429 1431 1438 1443 1444 1453 1455 1459 1466 1468 1469 1471 1474 1476 1475 1478 1478 1478 1478 1476 1476 1477 1478 1479 1479 1478 1477 1476 1475 1473 1471
1378 1382 1385 1387 1389 1391 1387 1397 1414 1419 1425 1431 1432 1435 1439 1445 1447 1451 1456 1458 1462 1464 1464 1468 1470 1473 1474 1475 1475 1475 1475 1472 1473 1473 1474 1475 1476 1475 1473 1472 1471 1470 1467
1382 1385 1387 1388 1389 1392 1400 1408 1416 1423 1425 1428 1431 1434 1441 1443 1446 1451 1455 1458 1460 1461 1462 1468 1469 1471 1471 1471 1470 1471 1471 1469 1470 1469 1471 1472 1473 1472 1470 1469 1468 1466 1465
1391 1390 1391 1394 1396 1400 1406 1411 1412 1422 1423 1425 1430 1435 1439 1441 1445 1450 1454 1456 1457 1459 1461 1463 1466 1468 1469 1469 1467 1467 1468 1466 1466 1466 1468 1469 1469 1468 1466 1466 1465 1464 1462
1395 1395 1395 1398 1400 1404 1407 1411 1413 1417 1420 1423 1429 1433 1437 1440 1444 1448 1450 1451 1454 1457 1460 1462 1462 1463 1466 1465 1463 1465 1465 1463 1463 1463 1464 1464 1464 1463 1463 1462 1462 1461 1460
1394 1400 1401 1401 1398 1400 1406 1409 1413 1418 1420 1422 1426 1430 1436 1439 1441 1443 1446 1448 1450 1453 1457 1460 1460 1461 1461 1461 1460 1461 1460 1459 1460 1460 1459 1460 1459 1459 1459 1459 1459 1458 1457
1394 1397 1400 1399 1400 1400 1403 1408 1414 1418 1419 1421 1423 1427 1430 1433 1438 1442 1444 1445 1446 1449 1452 1455 1456 1457 1459 1458 1459 1460 1458 1458 1457 1456 1455 1454 1454 1455 1455 1456 1455 1455 1455